Sioux Falls, SD

5:35 AM CDT on September 27, 2016 (GMT -0500)
Foss

Weather History for KFSD - January, 2013

Change the Weather History Date:

Saturday, January 5, 2013

  Actual Average Record
Temperature  
Mean Temperature 14 °F 16 °F  
Max Temperature 28 °F 26 °F 62 °F (2012)
Min Temperature -1 °F 7 °F -29 °F (1924)
Degree Days  
Heating Degree Days 51 49  
Month to date heating degree days 248 245  
Since 1 July heating degree days 3188 3378  
Cooling Degree Days 0 0  
Month to date cooling degree days 0 0  
Year to date cooling degree days 0 0  
Moisture  
Dew Point 10 °F    
Average Humidity 79    
Maximum Humidity 95    
Minimum Humidity 63    
Precipitation  
Precipitation T in 0.01 in 0.39 in (2015)
Month to date precipitation T 0.09  
Year to date precipitation T 0.09  
Snow  
Snow T in 0.20 in 5.00 in (2015)
Month to date snowfall 0.1 1.2  
Since 1 July snowfall 13.9 18.1  
Snow Depth 3.00 in    
Sea Level Pressure  
Sea Level Pressure 30.08 in    
Wind  
Wind Speed 10 mph (NW)    
Max Wind Speed 28 mph    
Max Gust Speed 33 mph    
Visibility 8 miles    
Events Snow    
T = Trace of Precipitation, MM = Missing Value Source: NWS Daily Summary

Daily Weather History Graph

Daily Weather History Graph

Search for Another Location

Airport or City:

Trip Planner

Search our weather history database for the weather conditions in past years. The results will help you decide how hot, cold, wet, or windy it might be!

Date:

Astronomy

Jan. 05, 2013 Rise Set
Actual Time 8:00 AM CST 5:05 PM CST
Civil Twilight 7:27 AM CST 5:37 PM CST
Nautical Twilight 6:51 AM CST 6:13 PM CST
Astronomical Twilight 6:17 AM CST 6:48 PM CST
Moon 1:01 AM CST (1/5) 12:01 PM CST (1/5)
Length of Visible Light 10h 09m
Length of Day
9h 05m
Last Quarter, 44% of the Moon is Illuminated
Jan 5
Last Quarter
Jan 11
New
Jan 18
First Quarter
Jan 26
Full
Feb 3
Last Quarter

Hourly Weather History & Observations

Time (CST) Temp. Windchill Dew Point Humidity Pressure Visibility Wind Dir Wind Speed Gust Speed Precip Events Conditions
12:56 AM 3.9 °F -5.3 °F 1.9 °F 91% 30.10 in 10.0 mi NNE 4.6 mph - N/A   Clear
1:56 AM 6.1 °F - 3.9 °F 91% 30.08 in 10.0 mi Calm Calm - N/A   Clear
2:56 AM 3.0 °F -8.0 °F -0.0 °F 87% 30.07 in 8.0 mi North 5.8 mph - N/A   Clear
3:56 AM 1.9 °F - -0.9 °F 88% 30.06 in 10.0 mi Calm Calm - N/A   Clear
4:56 AM -0.0 °F -9.9 °F -2.9 °F 88% 30.06 in 10.0 mi NW 4.6 mph - N/A   Clear
5:56 AM 1.9 °F - -0.9 °F 88% 30.04 in 9.0 mi Calm Calm - N/A   Clear
6:56 AM 1.0 °F - -2.9 °F 83% 30.06 in 10.0 mi Calm Calm - N/A   Clear
7:56 AM -0.0 °F - -2.9 °F 88% 30.06 in 10.0 mi Calm Calm - N/A   Clear
8:56 AM 6.1 °F -0.9 °F 3.9 °F 91% 30.05 in 5.0 mi SW 3.5 mph - N/A   Clear
9:56 AM 12.0 °F - 10.0 °F 92% 30.05 in 6.0 mi Calm Calm - N/A   Clear
10:56 AM 19.9 °F 14.9 °F 14.0 °F 78% 30.05 in 10.0 mi NW 3.5 mph - N/A   Clear
11:56 AM 28.0 °F 20.0 °F 17.1 °F 63% 30.01 in 10.0 mi WNW 8.1 mph - N/A   Clear
12:56 PM 27.0 °F 13.9 °F 18.0 °F 69% 30.00 in 10.0 mi WNW 18.4 mph 25.3 mph N/A   Clear
1:56 PM 25.0 °F 10.6 °F 18.0 °F 75% 30.01 in 10.0 mi NW 20.7 mph 26.5 mph N/A   Clear
2:28 PM 24.8 °F 9.6 °F 17.6 °F 74% 29.94 in 10.0 mi NW 23.0 mph 27.6 mph N/A   Mostly Cloudy
2:56 PM 24.1 °F 9.4 °F 18.0 °F 77% 30.03 in 10.0 mi NW 20.7 mph - N/A   Overcast
3:49 PM 23.0 °F 7.2 °F 17.6 °F 80% 29.96 in 1.5 mi NW 23.0 mph - 0.00 in Snow Light Snow
3:56 PM 23.0 °F 8.0 °F 19.0 °F 85% 30.05 in 1.2 mi NW 20.7 mph 28.8 mph 0.00 in Snow Light Snow
4:02 PM 23.0 °F 9.2 °F 19.4 °F 86% 29.96 in 2.5 mi NW 17.3 mph - 0.00 in Snow Light Snow
4:14 PM 21.2 °F 6.8 °F 17.6 °F 86% 29.96 in 3.0 mi NW 17.3 mph 24.2 mph 0.00 in Snow Light Snow
4:56 PM 19.9 °F 3.9 °F 16.0 °F 85% 30.07 in 7.0 mi NW 20.7 mph 28.8 mph 0.00 in   Overcast
5:56 PM 19.0 °F 2.4 °F 14.0 °F 81% 30.11 in 8.0 mi WNW 21.9 mph 29.9 mph N/A   Overcast
6:44 PM 17.6 °F 0.5 °F 12.2 °F 79% 30.06 in 9.0 mi NW 21.9 mph 27.6 mph 0.00 in Snow Light Snow
6:47 PM 17.6 °F 0.1 °F 12.2 °F 79% 30.06 in 9.0 mi NW 23.0 mph 29.9 mph 0.00 in Snow Light Snow
6:56 PM 16.0 °F -1.7 °F 12.0 °F 84% 30.16 in 6.0 mi NW 21.9 mph 29.9 mph 0.00 in Snow Light Snow
7:28 PM 14.0 °F -3.0 °F 10.4 °F 86% 30.07 in 7.0 mi NW 18.4 mph 29.9 mph 0.00 in Snow Light Snow
7:56 PM 14.0 °F -3.0 °F 10.0 °F 84% 30.18 in 8.0 mi NW 18.4 mph 28.8 mph 0.00 in Snow Light Snow
8:56 PM 17.1 °F 2.0 °F 12.0 °F 81% 30.20 in 6.0 mi NNW 16.1 mph 20.7 mph 0.00 in Snow Light Snow
9:42 PM 17.6 °F 1.7 °F 12.2 °F 79% 30.13 in 7.0 mi NW 18.4 mph 24.2 mph N/A   Overcast
9:50 PM 17.6 °F 2.2 °F 12.2 °F 79% 30.13 in 8.0 mi NW 17.3 mph - 0.00 in   Overcast
9:56 PM 17.1 °F 1.5 °F 12.9 °F 84% 30.22 in 10.0 mi NW 17.3 mph - 0.00 in   Overcast
10:06 PM 15.8 °F -0.2 °F 12.2 °F 86% 30.13 in 10.0 mi NW 17.3 mph - N/A   Scattered Clouds
10:56 PM 14.0 °F 0.5 °F 10.0 °F 84% 30.22 in 10.0 mi NW 11.5 mph - N/A   Clear
11:56 PM 12.9 °F -0.9 °F 9.0 °F 84% 30.23 in 10.0 mi NW 11.5 mph - N/A   Clear